Home   Weather   Fairfield Glen   Past weeks
Flag for USA

Past Weather in Fairfield Glen, Georgia, USA — Yesterday and Last 2 Weeks

Now
50 °F

Mostly cloudy.


Feels Like: 50 °F
Forecast: 61 / 47 °F
Wind: No wind

Location: Fulton County Airport-Brown Field

Current Time: Dec 7, 2019 at 1:28:26 am

Latest Report: Dec 7, 2019 at 12:53 am


Visibility: 10 mi

Pressure: 30.18 "Hg

Humidity: 83%

Dew Point: 45 °F

Location of Fairfield GlenLocation

Past Weather in Fairfield Glen — Graph

°F

Fairfield Glen Temperature Yesterday

Maximum temperature yesterday: 58 °F (at 1:53 pm)
Minimum temperature yesterday: 41 °F (at 1:53 am)
Average temperature yesterday: 49 °F

High & Low Weather Summary for the Past Weeks

 TemperatureHumidityPressure
High74 °F (Nov 27, 1:53 pm)97% (Nov 25, 3:53 am)30.31 "Hg (Nov 25, 3:53 am)
Low32 °F (Nov 25, 5:21 am)14% (Nov 27, 3:53 pm)29.58 "Hg (Dec 1, 2:53 pm)
Average52 °F64%29.99 "Hg
* Reported Nov 21 11:53 pm — Dec 6 11:53 pm, Fairfield Glen. Weather by CustomWeather, © 2019

Note: Actual official high and low records may vary slightly from our data, if they occured in-between our weather recording intervals... More about our weather records

Fairfield Glen Weather History for the Previous 24 Hours

Scroll right to see more
 ConditionsComfort  
Time TempWeatherWind HumidityBarometerVisibility
11:53 pm
Fri, Dec 6
50 °FOvercast.No wind86%30.19 "Hg10 mi
10:53 pm50 °FMostly cloudy.No wind86%30.19 "Hg10 mi
9:53 pm52 °FMostly cloudy.No wind80%30.19 "Hg10 mi
8:53 pm52 °FOvercast.No wind80%30.18 "Hg10 mi
7:53 pm51 °FOvercast.No wind80%30.17 "Hg10 mi
6:53 pm51 °FMostly cloudy.No wind80%30.17 "Hg10 mi
5:53 pm52 °FLight rain. Mostly cloudy.No wind72%30.14 "Hg10 mi
4:53 pm58 °FOvercast.No wind41%30.13 "Hg10 mi
3:53 pm58 °FMostly cloudy.5 mph44%30.12 "Hg10 mi
2:53 pm58 °FPartly sunny.5 mph44%30.13 "Hg10 mi
1:53 pm58 °FOvercast.3 mph43%30.14 "Hg10 mi
12:53 pm56 °FMostly cloudy.No wind49%30.17 "Hg10 mi
11:53 am53 °FOvercast.3 mph56%30.17 "Hg10 mi
10:53 am51 °FCloudy.3 mph61%30.20 "Hg10 mi
9:53 am49 °FScattered clouds.No wind66%30.22 "Hg10 mi
8:53 am46 °FSunny.No wind73%30.20 "Hg10 mi
7:53 am45 °FPassing clouds.No wind74%30.19 "Hg10 mi
6:53 am44 °FPassing clouds.No wind73%30.19 "Hg10 mi
5:53 am42 °FPassing clouds.No wind79%30.18 "Hg10 mi
4:53 am42 °FOvercast.No wind76%30.17 "Hg10 mi
3:53 am43 °FPassing clouds.No wind71%30.16 "Hg10 mi
2:53 am43 °FPassing clouds.No wind68%30.17 "Hg10 mi
1:53 am41 °FPassing clouds.No wind74%30.17 "Hg10 mi
Weather by CustomWeather, © 2019

See weather overview

Advertising